| time (UTC) | temp C | wind direction | speed KPH | gust KPH | rain 1hr cm | rain 24hr cm | rain mn cm | humidity % | barometer mb |
| 20260510230042 | 20 | 227 | 1.6 | 17.7 | 0.00 | 0.00 | 0.00 | 44 | 1011.3 |
| 20260510224551 | 20 | 238 | 9.7 | 19.3 | 0.00 | 0.03 | 0.00 | 42 | 1011.1 |
| 20260510223040 | 20 | 236 | 6.4 | 22.5 | 0.00 | 0.03 | 0.00 | 43 | 1010.8 |
| 20260510221546 | 21 | 241 | 8.0 | 27.4 | 0.00 | 0.03 | 0.00 | 45 | 1010.6 |
| 20260510220043 | 21 | 0 | 8.0 | 22.5 | 0.00 | 0.03 | 0.00 | 48 | 1010.2 |
| 20260510214545 | 21 | 321 | 4.8 | 14.5 | 0.00 | 0.25 | 0.00 | 51 | 1010.0 |
| 20260510213053 | 21 | 240 | 3.2 | 16.1 | 0.00 | 0.25 | 0.00 | 52 | 1010.0 |
| 20260510211607 | 21 | 232 | 8.0 | 19.3 | 0.00 | 0.25 | 0.00 | 49 | 1010.0 |
| 20260510210040 | 22 | 348 | 1.6 | 16.1 | 0.00 | 0.25 | 0.00 | 49 | 1009.8 |
| 20260510204537 | 22 | 235 | 6.4 | 24.1 | 0.00 | 0.46 | 0.00 | 50 | 1009.8 |
| 20260510203042 | 23 | 0 | 1.6 | 14.5 | 0.00 | 0.46 | 0.00 | 51 | 1009.8 |
| 20260510201542 | 22 | 339 | 3.2 | 11.3 | 0.00 | 0.46 | 0.00 | 61 | 1009.6 |
| 20260510200049 | 21 | 259 | 1.6 | 8.0 | 0.00 | 0.46 | 0.00 | 66 | 1009.7 |
| 20260510194544 | 22 | 300 | 0.0 | 14.5 | 0.00 | 0.64 | 0.00 | 58 | 1009.8 |
| 20260510193035 | 22 | 244 | 6.4 | 16.1 | 0.00 | 0.64 | 0.00 | 58 | 1010.0 |
| 20260510191601 | 22 | 232 | 6.4 | 22.5 | 0.00 | 0.64 | 0.00 | 55 | 1009.9 |
| 20260510190053 | 22 | 5 | 8.0 | 17.7 | 0.00 | 0.64 | 0.00 | 57 | 1010.0 |
| 20260510184540 | 21 | 343 | 4.8 | 14.5 | 0.00 | 0.86 | 0.00 | 62 | 1010.1 |
| 20260510183045 | 22 | 234 | 6.4 | 12.9 | 0.00 | 0.86 | 0.00 | 56 | 1010.2 |
| 20260510181535 | 22 | 197 | 1.6 | 6.4 | 0.00 | 0.86 | 0.00 | 61 | 1010.0 |
| 20260510180051 | 21 | 244 | 1.6 | 9.7 | 0.00 | 0.86 | 0.00 | 61 | 1010.1 |
| 20260510174542 | 22 | 230 | 3.2 | 16.1 | 0.00 | 1.19 | 0.00 | 60 | 1010.1 |
| 20260510173041 | 21 | 0 | 4.8 | 12.9 | 0.00 | 1.19 | 0.00 | 64 | 1010.3 |
| 20260510171542 | 21 | 220 | 1.6 | 8.0 | 0.00 | 1.19 | 0.00 | 64 | 1010.5 |
| 20260510170044 | 21 | 233 | 1.6 | 11.3 | 0.00 | 1.19 | 0.00 | 63 | 1010.7 |
| 20260510164544 | 20 | 0 | 0.0 | 4.8 | 0.00 | 1.37 | 0.00 | 70 | 1010.8 |
| 20260510163043 | 20 | 0 | 0.0 | 9.7 | 0.00 | 1.37 | 0.00 | 70 | 1011.1 |
| 20260510161541 | 19 | 185 | 1.6 | 11.3 | 0.00 | 1.37 | 0.00 | 74 | 1011.2 |
| 20260510160051 | 18 | 0 | 1.6 | 11.3 | 0.00 | 1.37 | 0.00 | 71 | 1011.2 |
| 20260510154552 | 18 | 243 | 3.2 | 8.0 | 0.00 | 1.47 | 0.00 | 70 | 1011.3 |
| 20260510153045 | 18 | 0 | 0.0 | 8.0 | 0.00 | 1.47 | 0.00 | 77 | 1011.3 |
| 20260510151542 | 17 | 0 | 0.0 | 6.4 | 0.00 | 1.47 | 0.00 | 80 | 1011.3 |
| 20260510150042 | 17 | 104 | 0.0 | 4.8 | 0.00 | 1.47 | 0.00 | 84 | 1011.3 |
| 20260510144547 | 15 | 0 | 0.0 | 4.8 | 0.00 | 1.57 | 0.00 | 90 | 1011.4 |
| 20260510143101 | 14 | 0 | 0.0 | 3.2 | 0.00 | 1.57 | 0.00 | 94 | 1011.6 |
| 20260510141538 | 13 | 5 | 0.0 | 3.2 | 0.00 | 1.57 | 0.00 | 96 | 1011.8 |
| 20260510140045 | 13 | 0 | 0.0 | 3.2 | 0.00 | 1.57 | 0.00 | 96 | 1011.8 |
| 20260510134548 | 13 | 0 | 0.0 | 3.2 | 0.00 | 1.57 | 0.00 | 97 | 1011.5 |
| 20260510133043 | 12 | 0 | 0.0 | 3.2 | 0.00 | 1.57 | 0.00 | 97 | 1011.7 |
| 20260510131543 | 11 | 0 | 0.0 | 3.2 | 0.00 | 1.57 | 0.00 | 97 | 1011.7 |
| 20260510130038 | 11 | 0 | 0.0 | 0.0 | 0.00 | 1.57 | 0.00 | 96 | 1011.8 |
| 20260510124552 | 11 | 0 | 0.0 | 0.0 | 0.00 | 1.57 | 0.00 | 96 | 1011.8 |
| 20260510123041 | 10 | 0 | 0.0 | 0.0 | 0.00 | 1.57 | 0.00 | 96 | 1011.7 |
| 20260510121541 | 10 | 0 | 0.0 | 0.0 | 0.00 | 1.57 | 0.00 | 96 | 1011.7 |
| 20260510120041 | 10 | 0 | 0.0 | 0.0 | 0.00 | 1.57 | 0.00 | 96 | 1011.9 |
| 20260510114541 | 10 | 0 | 0.0 | 1.6 | 0.00 | 1.57 | 0.00 | 96 | 1011.7 |
| 20260510113045 | 9 | 0 | 0.0 | 3.2 | 0.00 | 1.57 | 0.00 | 96 | 1011.8 |
| 20260510111542 | 9 | 0 | 0.0 | 0.0 | 0.00 | 1.57 | 0.00 | 96 | 1011.2 |
| 20260510110044 | 8 | 0 | 0.0 | 0.0 | 0.00 | 1.57 | 0.00 | 96 | 1011.3 |
| 20260510104541 | 8 | 0 | 0.0 | 0.0 | 0.00 | 1.57 | 0.00 | 96 | 1011.0 |
| 20260510103040 | 8 | 0 | 0.0 | 0.0 | 0.00 | 1.57 | 0.00 | 96 | 1010.9 |
| 20260510101537 | 8 | 0 | 0.0 | 0.0 | 0.00 | 1.57 | 0.00 | 96 | 1010.7 |
| 20260510100042 | 8 | 0 | 0.0 | 0.0 | 0.00 | 1.57 | 0.00 | 96 | 1010.2 |
| 20260510094551 | 8 | 0 | 0.0 | 0.0 | 0.00 | 1.57 | 0.00 | 96 | 1010.6 |
| 20260510093055 | 8 | 0 | 0.0 | 0.0 | 0.00 | 1.57 | 0.00 | 96 | 1010.3 |
| 20260510091545 | 8 | 0 | 0.0 | 0.0 | 0.00 | 1.57 | 0.00 | 96 | 1010.7 |
| 20260510090037 | 8 | 0 | 0.0 | 0.0 | 0.00 | 1.57 | 0.00 | 96 | 1010.6 |
| 20260510084543 | 8 | 0 | 0.0 | 0.0 | 0.00 | 1.57 | 0.00 | 96 | 1010.7 |
| 20260510083043 | 8 | 0 | 0.0 | 0.0 | 0.00 | 1.57 | 0.00 | 96 | 1010.6 |
| 20260510081541 | 8 | 0 | 0.0 | 0.0 | 0.00 | 1.57 | 0.00 | 96 | 1010.7 |
| 20260510080040 | 8 | 0 | 0.0 | 1.6 | 0.00 | 1.57 | 0.00 | 96 | 1010.6 |
| 20260510074536 | 8 | 0 | 0.0 | 3.2 | 0.00 | 1.57 | 0.00 | 96 | 1010.6 |
| 20260510073047 | 8 | 0 | 1.6 | 3.2 | 0.00 | 1.57 | 0.00 | 96 | 1010.4 |
| 20260510071550 | 8 | 0 | 0.0 | 0.0 | 0.00 | 1.57 | 0.00 | 96 | 1010.5 |
| 20260510070044 | 8 | 0 | 0.0 | 0.0 | 0.00 | 1.57 | 0.00 | 96 | 1010.8 |
| 20260510064541 | 8 | 0 | 0.0 | 3.2 | 0.00 | 1.57 | 0.00 | 96 | 1010.4 |
| 20260510063040 | 8 | 0 | 0.0 | 0.0 | 0.00 | 1.57 | 0.00 | 96 | 1010.7 |
| 20260510061546 | 8 | 0 | 0.0 | 0.0 | 0.00 | 1.57 | 0.00 | 96 | 1010.6 |
| 20260510060045 | 8 | 0 | 0.0 | 0.0 | 0.00 | 1.57 | 0.00 | 96 | 1010.7 |
| 20260510054542 | 8 | 0 | 0.0 | 0.0 | 0.00 | 1.57 | 0.00 | 95 | 1010.7 |
| 20260510053055 | 8 | 0 | 0.0 | 0.0 | 0.00 | 1.57 | 0.00 | 95 | 1010.9 |
| 20260510051547 | 8 | 0 | 0.0 | 0.0 | 0.00 | 1.57 | 0.00 | 95 | 1011.3 |
| 20260510050042 | 7 | 0 | 0.0 | 0.0 | 0.00 | 1.57 | 0.00 | 95 | 1011.2 |
| 20260510044537 | 7 | 0 | 0.0 | 0.0 | 0.00 | 1.57 | 0.00 | 95 | 1011.2 |
| 20260510043058 | 7 | 0 | 0.0 | 3.2 | 0.00 | 1.57 | 0.00 | 95 | 1011.3 |
| 20260510041542 | 7 | 0 | 0.0 | 0.0 | 0.00 | 1.57 | 0.00 | 95 | 1011.1 |
| 20260510040044 | 7 | 0 | 0.0 | 0.0 | 0.00 | 1.57 | 0.00 | 95 | 1011.1 |
| 20260510034542 | 7 | 0 | 0.0 | 0.0 | 0.00 | 1.57 | 1.57 | 95 | 1011.2 |
| 20260510033040 | 7 | 0 | 0.0 | 0.0 | 0.00 | 1.57 | 1.57 | 95 | 1011.6 |
| 20260510031540 | 7 | 0 | 0.0 | 0.0 | 0.00 | 1.57 | 1.57 | 95 | 1011.5 |
| 20260510030041 | 7 | 0 | 0.0 | 0.0 | 0.00 | 1.57 | 1.57 | 95 | 1011.8 |
| 20260510024549 | 7 | 0 | 0.0 | 0.0 | 0.00 | 1.57 | 1.57 | 95 | 1011.9 |
| 20260510023040 | 7 | 0 | 0.0 | 3.2 | 0.00 | 1.57 | 1.57 | 95 | 1011.9 |
| 20260510021542 | 8 | 0 | 0.0 | 0.0 | 0.00 | 1.57 | 1.57 | 95 | 1012.0 |
| 20260510020042 | 8 | 0 | 0.0 | 0.0 | 0.00 | 1.57 | 1.57 | 95 | 1012.0 |
| 20260510014541 | 8 | 0 | 0.0 | 4.8 | 0.00 | 1.57 | 1.57 | 95 | 1012.2 |
| 20260510013048 | 8 | 0 | 0.0 | 0.0 | 0.00 | 1.57 | 1.57 | 95 | 1012.2 |
| 20260510011544 | 8 | 0 | 0.0 | 0.0 | 0.00 | 1.57 | 1.57 | 95 | 1012.1 |
| 20260510010040 | 8 | 0 | 0.0 | 0.0 | 0.00 | 1.57 | 1.57 | 95 | 1012.0 |
| 20260510004546 | 8 | 0 | 0.0 | 0.0 | 0.00 | 1.57 | 1.57 | 95 | 1011.9 |
| 20260510003043 | 8 | 0 | 0.0 | 0.0 | 0.00 | 1.57 | 1.57 | 95 | 1011.7 |
| 20260510001543 | 8 | 0 | 0.0 | 0.0 | 0.00 | 1.57 | 1.57 | 95 | 1011.8 |
| 20260510000048 | 8 | 0 | 0.0 | 0.0 | 0.00 | 1.57 | 1.57 | 95 | 1011.5 |
| 20260509234538 | 8 | 0 | 0.0 | 0.0 | 0.00 | 1.57 | 1.57 | 95 | 1011.3 |
| 20260509233039 | 7 | 0 | 0.0 | 0.0 | 0.00 | 1.57 | 1.57 | 95 | 1011.3 |
| 20260509231544 | 7 | 0 | 0.0 | 0.0 | 0.03 | 1.57 | 1.57 | 95 | 1011.3 |